Погода в Шымкенте

Поиск расширенной информации на нашем сайте:

Полезная информация:

Новости сайта



02.01.2020
Опубликован Долгосрочный прогноз погоды по городам России и ближнего зарубежья на январь 2020 года.
Карты: Прогноз на январь и февраль 2020 года, Сравнение прогнозируемой аномалии приземной температуры воздуха на январь 2020 года по разным моделям.




Погода в Шымкенте - сегодня

Время (UTC), дата Ветер
(°,м/с) 
Видим.   Явления Облачность Т
(°С)
Тd
(°С)
f(%) Тe
(°С)
Pmin
(гПа)
dP
(гПа)
Po
(мм)
O2
(г/м3)
Тmin Tmax R s Состояние
почвы
12 03.03.21 080 (В) 4000 м  дымка{ливн. осадки}  10/10 600 м кучево-дожд. 
[Cb cap]
+4.1 +2.2 87 +5  1023.6  -0.8  713  283           
15 03.03.21 тихо ()   н/о  в посл. час ливневой дождь  10/10 600 м кучево-дожд. 
[Cb cap]
+3.8 +2.1 89 +4  1022.5  -1.1  713  283    +4.7       
18 03.03.21 тихо ()   н/о  слаб. ливневой дождь  10/10 600 м кучево-дожд. 
[Cb cap]
+3.1 +1.9 92 +3  1022.5  -0.2  712  283    +4.7     
21 03.03.21 120 (ЮВ) н/о  слаб. ливневой дождь  10/10 600 м кучево-дожд. 
[Cb cap]
+4.2 +2.8 91 +5  1020.4  -1.7  711  282           
00 04.03.21 140 (ЮВ) н/о  слаб. ливневой дождь  10/10 600 м кучево-дожд. 
[Cb cap]
+5 +3.8 92 +5  1019  -1  710  280           
03 04.03.21 150 (ЮВ) 2000 м  дымка{ливн. осадки}  10/10 600 м кучево-дожд. 
[Cb cap]
+5.2 +3.8 91 +6  1018.6  -0.3  710  280         
06 04.03.21 300 (СЗ) 20000 м  {ливн. осадки}  10/10 600 м кучево-дожд. 
[Cb cap]
+7.6 +4 78 +9  1018.2  0.1  710  278  +2.5       
09 04.03.21 230 (ЮЗ) 4000 м  слаб. ливневой дождь  10/10 600 м кучево-дожд. 
[Cb cap]
+6.2 +4.4 88 +5  1018  -0.4  710  279           
12 04.03.21 180 (Ю) 2000 м  в посл. час ливневой дождь  10/10 600 м кучево-дожд. 
[Cb cap]
+7.8 +6.8 93 +7  1016.3  -1.2  709  276           
15 04.03.21 230 (ЮЗ) н/о  в посл. час ливневой дождь  10/10 600 м кучево-дожд. 
[Cb cap]
+6.7 +5.4 91 +5  1018.7  1.9  710  278    +8.7       
18 04.03.21 280 (З) н/о  слаб. ливневой дождь  10/10 600 м кучево-дожд. 
[Cb cap]
+2.1 +1.3 94 +1  1025.4  714  285    +8.7  12     
21 04.03.21 280 (З) н/о  в посл. час ливневой дождь  10/10 600 м кучево-дожд. 
[Cb cap]
+1.9 +1.1 94 +1  1029.6  3.8  717  287           
00 05.03.21 270 (З) н/о  дымка{ливн. осадки}  10/10 600 м кучево-дожд. 
[Cb cap]
+1.1 +0.3 94 1031.4  1.5  718  288           
03 05.03.21 тихо ()   2000 м  дымка  9/9 600 м кучево-дожд. 
[Cb cap]
+0.1 -0.5 96 1032.7  0.9  719  289         
06 05.03.21 250 (З) 20000 м    8/8 600 м кучево-дожд. 
[Cb cap]
+2.9 -0.6 78 +4  1031.7  -0.2  719  287  -0.5       
09 05.03.21 050 (СВ) 20000 м    6/6 600 м кучево-дожд. 
[Cb cap]
+6.4 +0.1 64 +6  1028.4  -2.2  717  282           
12 05.03.21 070 (В) 20000 м    ясно 
+7.3 -2.5 50 +7  1025.1  -2.8  715  281           
15 05.03.21 090 (В) н/о    ясно 
+2.9 -3.1 65 +2  1024.1  -2  713  285    +7.9       
18 05.03.21 110 (В) н/о    ясно 
+2 -5.3 58 +1  1022.5  -1.7  712  285    +7.9       
21 05.03.21 110 (В) н/о    ясно 
+2.2 -6.6 52 +2  1019.9  -2.5  710  284           
00 06.03.21 100 (В) н/о    ясно 
+1.6 -5.1 61 +1  1017.4  -2.4  708  284           
03 06.03.21 120 (ЮВ) 50000 м    8/4 600 м средняя, верхняя 
[Sc|Ac trans|Ci fib]
+2.3 -6.8 51 +3  1015.7  -1.4  707  283           
06 06.03.21 040 (СВ) 20000 м    8/0 средняя, верхняя 
[Ac As|Ci fib]
+11 -3.9 35 +12  1012.4  -0.9  707  274  +0.5         
09 06.03.21 330 (СЗ) 20000 м    10/0 средняя 
[Ac As]
+11.8 -2.1 38 +12  1012  -0.2  707  273           
12 06.03.21 290 (З) 20000 м    10/10 600 м кучево-дожд. 
[Cb cap]
+11.5 -2.2 38 +12  1013.1  0.9  707  274           
Время (UTC), дата Ветер
(°,м/с) 
Видим.   Явления Облачность Т
(°С)
Тd
(°С)
f(%) Тe
(°С)
Pmin
(гПа)
dP
(гПа)
Po
(мм)
O2
(г/м3)
Тmin Tmax R s Состояние
почвы

Для получения пояснительной информации подведите курсор к названию столбца.

ПОГОДА в Шымкенте - архив

Всё, что Вы хотите узнать о погоде в Шымкенте - удобно и подробно!

Выберите нужную дату (начиная с 1 января 2019* года) и нажмите кнопку "Найти".
Будут отображены архивные сводки погоды по пункту Шымкент, начиная с указанной даты.


Отображать данные в формате CSV (для использования в таблицах Excel)


Внимание! Наш архив погоды предназначен исключительно для личного некоммерческого использования в познавательных целях. Если Вам необходимы официальные справки о состоянии погоды (для производственных, юридических, коммерческих и т.п. целей), обращайтесь в органы Росгидромета.

*Примечание: данная дата относится к архиву по метеостанциям СССР (Россия, СНГ, Балтия).
Архив по метеостанциям Зарубежной Европы и Азии (кроме Китая) хранится 10 дней, по другим регионам земного шара (Китай, Африка, Америка, Австралия, Океания) - 1 день.

Шымкент - район местоположения метеостанции


Название, широта, долгота, высота метеостанции:
Шымкент (город) 42.3°ш. 69.7°д. 604 м над ур. моря [Казахстан]

Дополнительная информация

В oтличие oт бoльшинства пoгoдных сайтoв мы публикуем пoдрoбную метеoинфoрмацию в детальнoм прoфессиoнальнoм фoрмате.

Характеристики температуры и влажнoсти вoздуха измеряются на высoте 2 м в тени вдали oт зданий и деревьев.
Скoрoсть ветра измеряется на высoте 10 м (на урoвне рoста челoвека скoрoсть ветра ниже в 1.5-2 раза). Если метеoстанция нахoдится в гoрoде или в лесу, тo скoрoсть ветра занижена на 2-4 м/с пo сравнению с oткрытым местoм. Скoрoсть ветра над акватoриями крупных рек и oзёр, а также на вершинах хoлмoв на 2-5 м/с выше, чем в oбычных услoвиях.
Атмoсфернoе давление в разных тoчках местнoсти мoжет значительнo oтличаться oт давления на метеoстанции, в зависимoсти oт услoвий рельефа (при пoдъёме на 10 м давление пoнижается примернo на 1 мм рт.ст.).